Location: Червишево
(56.9461°N, 65.4282°E)
Time: 22:21:21
(UTC+05:00)

GOSAT - Visible Passes

Search period start: 06 August 2020 00:00
Search period end: 16 August 2020 00:00
Orbit: 668 x 669 km, 98.1° (Epoch: 06 August)

Date Brightness Start Highest point End Pass type
(mag) Time Alt. Az. Time Alt. Az. Time Alt. Az.
06 Aug ? 00:55:53 29° S 00:58:09 72° WSW 01:02:46 10° NNW visible
06 Aug ? 02:34:04 11° WSW 02:36:06 13° W 02:38:21 10° NW visible
06 Aug ? 22:17:12 10° NE 22:17:37 10° NE 22:18:02 10° NE visible
06 Aug ? 23:50:30 17° ESE 23:53:34 38° ENE 23:57:49 10° N visible
07 Aug ? 01:28:41 26° SSW 01:30:40 40° W 01:35:01 10° NNW visible
07 Aug ? 22:46:48 10° E 22:49:29 16° NE 22:52:09 10° NNE visible
08 Aug ? 00:23:18 26° SE 00:25:47 65° ENE 00:30:22 10° NNW visible
08 Aug ? 02:01:29 19° WSW 02:03:18 23° W 02:06:59 10° NW visible
08 Aug ? 23:17:55 11° ESE 23:21:27 24° NE 23:25:06 10° N visible
09 Aug ? 00:56:06 33° S 00:58:08 72° WSW 01:02:46 10° NNW visible
09 Aug ? 02:34:17 11° WSW 02:36:05 13° W 02:38:20 10° NW visible
09 Aug ? 22:17:11 10° NE 22:17:36 10° NE 22:18:01 10° NE visible
09 Aug ? 23:50:43 19° ESE 23:53:33 38° ENE 23:57:48 10° N visible
10 Aug ? 01:28:55 29° SW 01:30:39 40° W 01:35:00 10° NNW visible
10 Aug ? 22:46:47 10° E 22:49:28 16° NE 22:52:09 10° NNE visible
11 Aug ? 00:23:32 29° SE 00:25:46 65° ENE 00:30:21 10° NNW visible
11 Aug ? 02:01:43 20° WSW 02:03:17 23° W 02:06:59 10° NW visible
11 Aug ? 23:18:09 12° ESE 23:21:26 24° NE 23:25:05 10° N visible
12 Aug ? 00:56:20 37° S 00:58:08 72° WSW 01:02:45 10° NNW visible
12 Aug ? 02:34:32 12° WSW 02:36:05 13° W 02:38:20 10° NW visible
12 Aug ? 22:17:10 10° NE 22:17:35 10° NE 22:18:00 10° NE visible
12 Aug ? 23:50:58 21° ESE 23:53:32 38° ENE 23:57:48 10° N visible
13 Aug ? 01:29:09 31° SW 01:30:38 40° W 01:35:00 10° NNW visible
13 Aug ? 22:46:47 10° E 22:49:27 16° NE 22:52:08 10° NNE visible
14 Aug ? 00:23:46 33° SE 00:25:45 65° ENE 00:30:21 10° NNW visible
14 Aug ? 02:01:58 21° WSW 02:03:16 23° W 02:06:57 10° NW visible
14 Aug ? 23:18:24 13° ESE 23:21:25 24° NE 23:25:04 10° N visible
15 Aug ? 00:56:35 41° S 00:58:07 72° WSW 01:02:44 10° NNW visible
15 Aug ? 02:34:46 12° WSW 02:36:04 13° W 02:38:19 10° NW visible
15 Aug ? 22:17:09 10° NE 22:17:34 10° NE 22:17:59 10° NE visible
15 Aug ? 23:51:13 23° ESE 23:53:31 38° ENE 23:57:46 10° N visible
